Regional Weather Roundup
Issued by NWS

Home | Current Version | Previous Version | Graphics & Text | Print | Product List | Glossary On
Versions: 1 2 3 4 5 6 7 8 9 10 11 12 13 14 15 16 17 18 19 20 21 22 23 24 25 26 27 28 29 30 31 32 33 34 35 36 37 38 39 40 41 42 43 44 45 46 47 48 49 50
000
ASUS43 KLMK 170610
RWRKY
KENTUCKY REGIONAL WEATHER ROUNDUP
NATIONAL WEATHER SERVICE LOUISVILLE KY
200 AM EDT WED SEP 17 2014

NOTE "FAIR" INDICATES FEW OR NO CLOUDS BELOW 12,000 FEET
WITH NO SIGNIFICANT WEATHER AND/OR OBSTRUCTIONS TO VISIBILITY.

KYZ001>023-026-027-061>063-070>075-170700-
WESTERN AND SOUTH CENTRAL KENTUCKY

CITY           SKY/WX    TMP DP  RH WIND       PRES   REMARKS
PADUCAH        CLEAR     50  47  89 W3        30.10R FOG
HENDERSON      CLEAR     46  43  87 CALM      30.10S
OWENSBORO      CLEAR     53  51  93 CALM      30.10S
HOPKINSVILLE   CLEAR     53  53 100 N5        30.08S
BOWLING GREEN  CLEAR     56  53  90 N3        30.08F
GLASGOW        CLEAR     54  54 100 CALM      30.08S
$$

KYZ024-025-028>034-038-045-046-053-170700-
NORTH CENTRAL KENTUCKY

CITY           SKY/WX    TMP DP  RH WIND       PRES   REMARKS
LOUISVILLE/SDF CLEAR     55  51  86 CALM      30.09F
LOUISVILLE/LOU CLEAR     52  50  93 CALM      30.09F
FORT KNOX      CLEAR     52  50  93 NE2       30.08F
$$

KYZ035>037-039>044-047>052-055>060-089>105-170700-
NORTHEAST KENTUCKY

CITY           SKY/WX    TMP DP  RH WIND       PRES   REMARKS
LEXINGTON      PTCLDY    52  49  89 CALM      30.10S FOG
COVINGTON      CLEAR     53  49  86 CALM      30.09F
FRANKFORT      MOCLDY    49  47  93 CALM      30.09S FOG
$$

KYZ054-064>069-076>088-106>120-170700-
SOUTHEAST KENTUCKY

CITY           SKY/WX    TMP DP  RH WIND       PRES   REMARKS
JACKSON        CLOUDY    57  55  93 CALM      30.08S
LONDON         CLOUDY    59  56  89 NE3       30.08S
SOMERSET       NOT AVBL
MIDDLESBORO    CLEAR     57  56  99 CALM      30.06F
MONTICELLO     CLOUDY    57  57 100 CALM      30.09S FOG
$$



USA.gov is the U.S. government's official web portal to all federal, state and local government web resources and services.